User: anonymous   Login
Location: Unspecified
(0.0000°N, 0.0000°E)
Time: 21:18:54
(UTC+01:00)
Language:

YAOGAN 3 - Orbit

View from above orbital plane
View from above orbital plane
View from above satellite
View from above satellite

Ground track
Ground track

The orbit data is extracted from the following two-line orbital elements,

1 32289U 07055A   15062.41128542  .00000919  00000-0  12755-3 0  9994
2 32289 097.9590 057.4873 0001955 103.3280 256.8175 14.80306784394917
Epoch (UTC): 03 March 2015 09:52:15
Eccentricity: 0.0001955
inclination: 97.9590°
perigee height: 627 km
apogee height: 630 km
right ascension of ascending node: 57.4873°
argument of perigee: 103.3280°
revolutions per day: 14.80306784
mean anomaly at epoch: 256.8175°
orbit number at epoch: 39491

The dashed part of the orbit path shows where the satellite is in the earth's shadow,  

DLR